カタログに戻る

STARLINK-11296

運用中通信VLEO
NORAD 61699·PAYLOAD·🇺🇸 United States

打ち上げ Oct 30, 2024 から Vandenberg Space Force Base

Loading…

次のパス (今後24時間)

TLE

最新Source: CelesTrak SupGP

元期: Sep 14, 2026, 20:49 UTC

1 61699C 24195N   26257.86784722  .00024269  00000+0  19986-3 0  2573
2 61699  53.1574 173.3489 0001138 100.4172 153.1834 15.69703478    17

AllMySatでSTARLINK-11296をリアルタイム追跡

Download on the App Store